カタログに戻る

STARLINK-32876

運用中通信VLEO
NORAD 63151·PAYLOAD·🇺🇸 United States

打ち上げ Mar 3, 2025 から Cape Canaveral Space Force Station

Loading…

次のパス (今後24時間)

TLE

最新Source: CelesTrak SupGP

元期: Sep 15, 2026, 03:53 UTC

1 63151C 25043V   26258.16229167  .00018158  00000+0  65749-3 0  2581
2 63151  43.0045  25.7330 0001956 270.2472 136.4315 15.27577332    15

AllMySatでSTARLINK-32876をリアルタイム追跡

Download on the App Store